TimeAKDT,TemperatureF,Dew PointF,Humidity,Sea Level PressureIn,VisibilityMPH,Wind Direction,Wind SpeedMPH,Gust SpeedMPH,PrecipitationIn,Events,Conditions,WindDirDegrees,DateUTC
12:53 AM,55.9,48.9,77,29.69,10.0,South,13.8,24.2,N/A,,Overcast,180,2013-09-02 08:53:00
1:53 AM,57.0,50.0,77,29.70,10.0,Calm,Calm,-,0.00,,Overcast,0,2013-09-02 09:53:00
2:53 AM,55.9,50.0,80,29.68,10.0,Calm,Calm,-,0.00,Rain,Light Rain,0,2013-09-02 10:53:00
3:53 AM,57.0,51.1,81,29.67,10.0,South,5.8,-,0.00,,Overcast,180,2013-09-02 11:53:00
4:53 AM,57.9,50.0,75,29.68,10.0,Variable,5.8,-,N/A,,Overcast,0,2013-09-02 12:53:00
5:00 AM,57.2,50.0,77,29.66,10.0,South,8.1,19.6,N/A,,Overcast,180,2013-09-02 13:00:00
5:53 AM,57.0,50.0,77,29.64,10.0,South,13.8,32.2,0.00,Rain,Light Rain,170,2013-09-02 13:53:00
6:04 AM,57.2,48.2,72,29.64,10.0,South,8.1,23.0,0.01,,Overcast,190,2013-09-02 14:04:00
6:53 AM,57.9,48.9,72,29.62,10.0,South,17.3,28.8,0.01,,Overcast,170,2013-09-02 14:53:00
7:53 AM,57.0,46.9,69,29.63,10.0,SSW,10.4,21.9,N/A,,Clear,200,2013-09-02 15:53:00
8:53 AM,57.9,46.9,67,29.62,10.0,South,16.1,32.2,N/A,,Partly Cloudy,180,2013-09-02 16:53:00
9:53 AM,57.9,46.9,67,29.60,10.0,South,18.4,33.4,N/A,,Overcast,180,2013-09-02 17:53:00
10:53 AM,57.9,46.9,67,29.57,10.0,South,20.7,35.7,N/A,,Mostly Cloudy,180,2013-09-02 18:53:00
11:53 AM,59.0,44.1,58,29.56,10.0,South,28.8,43.7,0.00,,Clear,170,2013-09-02 19:53:00
12:53 PM,59.0,42.1,53,29.53,10.0,South,19.6,46.0,0.00,Rain,Light Rain,180,2013-09-02 20:53:00
1:53 PM,59.0,45.0,60,29.55,10.0,South,19.6,39.1,0.00,Rain,Light Rain,170,2013-09-02 21:53:00
2:53 PM,55.9,43.0,62,29.55,10.0,South,12.7,26.5,0.01,Rain,Light Rain,180,2013-09-02 22:53:00
3:53 PM,53.1,46.9,80,29.56,3.0,South,17.3,36.8,0.10,Rain,Rain,180,2013-09-02 23:53:00
4:53 PM,52.0,48.0,86,29.56,4.0,South,13.8,27.6,0.11,Rain,Rain,170,2013-09-03 00:53:00
5:53 PM,52.0,46.0,80,29.52,10.0,South,16.1,28.8,0.11,,Mostly Cloudy,170,2013-09-03 01:53:00
6:53 PM,54.0,46.0,75,29.49,10.0,South,23.0,35.7,0.00,,Overcast,170,2013-09-03 02:53:00
7:19 PM,53.6,46.4,77,29.50,10.0,South,24.2,36.8,N/A,,Overcast,170,2013-09-03 03:19:00
7:40 PM,55.4,46.4,72,29.49,10.0,South,19.6,36.8,N/A,,Overcast,180,2013-09-03 03:40:00
7:53 PM,54.0,46.0,75,29.49,10.0,South,21.9,35.7,N/A,,Overcast,170,2013-09-03 03:53:00
8:53 PM,55.0,46.0,72,29.51,10.0,Variable,6.9,18.4,N/A,,Overcast,0,2013-09-03 04:53:00
9:53 PM,55.0,46.9,74,29.50,10.0,Variable,3.5,-,N/A,,Overcast,0,2013-09-03 05:53:00
10:53 PM,55.0,46.9,74,29.50,10.0,Variable,5.8,-,N/A,,Overcast,0,2013-09-03 06:53:00
11:53 PM,54.0,46.9,77,29.46,10.0,Calm,Calm,-,0.00,,Mostly Cloudy,0,2013-09-03 07:53:00